Time,TemperatureF,DewpointF,PressureIn,WindDirection,WindDirectionDegrees,WindSpeedMPH,WindSpeedGustMPH,Humidity,HourlyPrecipIn,Conditions,Clouds,dailyrainin,SoftwareType,DateUTC
2013-07-01 00:00:00,77.7,74.5,29.92,South,176,0.0,0.0,90,0.00,RA,OVC,0.00,WeatherDisplay:10.37,2013-07-01 04:00:00,
2013-07-01 00:01:00,77.7,74.5,29.92,South,176,0.0,0.0,90,0.00,RA,OVC,0.00,WeatherDisplay:10.37,2013-07-01 04:01:00,
2013-07-01 00:06:00,77.7,74.5,29.92,South,176,0.0,0.0,90,0.00,RA,OVC,0.00,WeatherDisplay:10.37,2013-07-01 04:06:00,
2013-07-01 00:11:00,77.9,74.7,29.92,South,175,0.0,0.0,90,0.00,SCT,OVC,0.00,WeatherDisplay:10.37,2013-07-01 04:11:00,
2013-07-01 00:16:00,77.9,74.7,29.92,South,176,0.0,0.0,90,0.00,SCT,OVC,0.00,WeatherDisplay:10.37,2013-07-01 04:16:00,
2013-07-01 00:21:00,78.1,74.6,29.92,South,176,0.0,0.0,89,0.00,SCT,OVC,0.00,WeatherDisplay:10.37,2013-07-01 04:21:00,
2013-07-01 00:26:00,78.1,74.6,29.92,South,184,0.0,0.0,89,0.00,SCT,OVC,0.00,WeatherDisplay:10.37,2013-07-01 04:26:00,
2013-07-01 00:31:00,78.3,74.8,29.93,South,188,2.3,2.3,89,0.00,SCT,OVC,0.00,WeatherDisplay:10.37,2013-07-01 04:31:00,
2013-07-01 00:36:00,78.3,74.8,29.93,South,182,0.0,0.1,89,0.00,SCT,OVC,0.00,WeatherDisplay:10.37,2013-07-01 04:36:00,
2013-07-01 00:41:00,78.3,74.5,29.93,SSE,168,4.6,4.6,88,0.00,SCT,OVC,0.00,WeatherDisplay:10.37,2013-07-01 04:41:00,
2013-07-01 00:46:00,78.5,74.6,29.93,South,173,0.0,0.0,88,0.00,SCT,OVC,0.00,WeatherDisplay:10.37,2013-07-01 04:46:00,
2013-07-01 00:51:00,78.5,74.3,29.93,South,180,9.2,9.2,87,0.00,SCT,OVC,0.00,WeatherDisplay:10.37,2013-07-01 04:51:00,
2013-07-01 00:56:00,78.6,74.1,29.93,South,183,3.5,3.5,86,0.00,SCT,OVC,0.00,WeatherDisplay:10.37,2013-07-01 04:56:00,
2013-07-01 01:01:00,78.8,74.3,29.93,South,173,2.3,2.3,86,0.00,SCT,OVC,0.00,WeatherDisplay:10.37,2013-07-01 05:01:00,
2013-07-01 01:06:00,78.8,74.3,29.93,South,174,2.3,2.3,86,0.00,SCT,OVC,0.00,WeatherDisplay:10.37,2013-07-01 05:06:00,
2013-07-01 01:11:00,78.8,74.3,29.93,South,183,1.0,2.1,86,0.00,SCT,OVC,0.00,WeatherDisplay:10.37,2013-07-01 05:11:00,
2013-07-01 01:16:00,78.8,74.3,29.92,South,177,0.0,0.0,86,0.00,SCT,OVC,0.00,WeatherDisplay:10.37,2013-07-01 05:16:00,
2013-07-01 01:21:00,78.8,73.9,29.92,South,182,0.0,0.0,85,0.00,SCT,OVC,0.00,WeatherDisplay:10.37,2013-07-01 05:21:00,
2013-07-01 01:26:00,78.8,73.9,29.92,South,184,0.0,0.0,85,0.00,SCT,OVC,0.00,WeatherDisplay:10.37,2013-07-01 05:26:00,
2013-07-01 01:31:00,78.8,73.9,29.92,South,184,0.0,0.0,85,0.00,SCT,OVC,0.00,WeatherDisplay:10.37,2013-07-01 05:31:00,
2013-07-01 01:36:00,78.8,73.9,29.92,South,186,0.0,0.2,85,0.00,SCT,OVC,0.00,WeatherDisplay:10.37,2013-07-01 05:36:00,
2013-07-01 01:41:00,78.8,73.9,29.92,South,182,1.2,0.0,85,0.00,SCT,OVC,0.00,WeatherDisplay:10.37,2013-07-01 05:41:00,
2013-07-01 01:46:00,78.8,73.9,29.92,South,181,0.0,0.0,85,0.00,SCT,OVC,0.00,WeatherDisplay:10.37,2013-07-01 05:46:00,
2013-07-01 01:51:00,78.8,73.9,29.92,South,181,0.0,0.0,85,0.00,SCT,OVC,0.00,WeatherDisplay:10.37,2013-07-01 05:51:00,
2013-07-01 01:57:00,78.6,73.7,29.92,South,181,0.0,0.0,85,0.00,SCT,OVC,0.00,WeatherDisplay:10.37,2013-07-01 05:57:00,
2013-07-01 02:02:00,78.6,73.7,29.91,South,180,0.0,0.0,85,0.00,SCT,OVC,0.00,WeatherDisplay:10.37,2013-07-01 06:02:00,
2013-07-01 02:07:00,78.5,73.6,29.91,South,180,0.0,0.0,85,0.00,SCT,OVC,0.00,WeatherDisplay:10.37,2013-07-01 06:07:00,
2013-07-01 02:12:00,78.5,73.6,29.91,South,180,0.0,0.0,85,0.00,SCT,OVC,0.00,WeatherDisplay:10.37,2013-07-01 06:12:00,
2013-07-01 02:17:00,78.5,73.6,29.90,SSE,167,5.8,5.8,85,0.00,SCT,OVC,0.00,WeatherDisplay:10.37,2013-07-01 06:17:00,
2013-07-01 02:22:00,78.5,73.6,29.90,SSE,160,0.0,0.0,85,0.00,SCT,OVC,0.00,WeatherDisplay:10.37,2013-07-01 06:22:00,
2013-07-01 02:27:00,78.5,73.6,29.90,SSE,161,0.0,0.0,85,0.00,SCT,OVC,0.00,WeatherDisplay:10.37,2013-07-01 06:27:00,
2013-07-01 02:32:00,78.3,73.4,29.90,SSE,161,0.0,0.0,85,0.00,SCT,OVC,0.00,WeatherDisplay:10.37,2013-07-01 06:32:00,
2013-07-01 02:37:00,78.3,73.8,29.90,SSE,161,0.0,0.0,86,0.00,SCT,OVC,0.00,WeatherDisplay:10.37,2013-07-01 06:37:00,
2013-07-01 02:42:00,78.3,73.8,29.90,SSE,161,0.0,0.0,86,0.00,SCT,OVC,0.00,WeatherDisplay:10.37,2013-07-01 06:42:00,
2013-07-01 02:47:00,78.1,73.6,29.89,SSE,160,0.0,0.0,86,0.00,SCT,OVC,0.00,WeatherDisplay:10.37,2013-07-01 06:47:00,
2013-07-01 02:52:00,78.1,73.6,29.89,SSE,161,0.0,0.0,86,0.00,SCT,OVC,0.00,WeatherDisplay:10.37,2013-07-01 06:52:00,
2013-07-01 02:57:00,78.1,73.6,29.89,SSE,161,0.0,0.0,86,0.00,SCT,OVC,0.00,WeatherDisplay:10.37,2013-07-01 06:57:00,
2013-07-01 03:02:00,78.1,73.6,29.89,SSE,161,0.0,0.0,86,0.00,SCT,OVC,0.00,WeatherDisplay:10.37,2013-07-01 07:02:00,
2013-07-01 03:07:00,78.1,73.6,29.89,SSE,161,0.0,0.0,86,0.00,SCT,OVC,0.00,WeatherDisplay:10.37,2013-07-01 07:07:00,
2013-07-01 03:12:00,77.9,73.4,29.89,SSE,161,0.0,0.0,86,0.00,SCT,OVC,0.00,WeatherDisplay:10.37,2013-07-01 07:12:00,
2013-07-01 03:17:00,77.9,73.7,29.88,SSE,161,0.0,0.0,87,0.00,SCT,OVC,0.00,WeatherDisplay:10.37,2013-07-01 07:17:00,
2013-07-01 03:22:00,77.9,73.7,29.88,SSE,161,0.0,0.0,87,0.00,SCT,OVC,0.00,WeatherDisplay:10.37,2013-07-01 07:22:00,
2013-07-01 03:27:00,77.9,73.7,29.88,SSE,161,0.0,0.0,87,0.00,SCT,OVC,0.00,WeatherDisplay:10.37,2013-07-01 07:27:00,
2013-07-01 03:32:00,77.9,73.7,29.89,SSE,161,0.0,0.0,87,0.00,SCT,OVC,0.00,WeatherDisplay:10.37,2013-07-01 07:32:00,
2013-07-01 03:37:00,77.9,73.7,29.89,SSE,161,0.0,0.0,87,0.00,SCT,OVC,0.00,WeatherDisplay:10.37,2013-07-01 07:37:00,
2013-07-01 03:42:00,77.7,73.9,29.89,SSE,161,0.0,0.0,88,0.00,SCT,OVC,0.00,WeatherDisplay:10.37,2013-07-01 07:42:00,
2013-07-01 03:47:00,77.7,73.9,29.89,SSE,161,0.0,0.0,88,0.00,SCT,OVC,0.00,WeatherDisplay:10.37,2013-07-01 07:47:00,
2013-07-01 03:52:00,77.6,73.8,29.89,SSE,161,0.0,0.0,88,0.00,SCT,OVC,0.00,WeatherDisplay:10.37,2013-07-01 07:52:00,
2013-07-01 03:57:00,77.6,73.8,29.89,SSE,161,0.0,0.0,88,0.00,SCT,OVC,0.00,WeatherDisplay:10.37,2013-07-01 07:57:00,
2013-07-01 04:02:00,77.6,74.1,29.89,SSE,161,0.0,0.0,89,0.00,SCT,OVC,0.00,WeatherDisplay:10.37,2013-07-01 08:02:00,
2013-07-01 04:07:00,77.6,74.1,29.89,SSE,161,0.0,0.0,89,0.00,SCT,OVC,0.00,WeatherDisplay:10.37,2013-07-01 08:07:00,
2013-07-01 04:12:00,77.4,73.9,29.89,SSE,161,0.0,0.0,89,0.00,SCT,OVC,0.00,WeatherDisplay:10.37,2013-07-01 08:12:00,
2013-07-01 04:17:00,77.4,73.9,29.89,SSE,161,0.0,0.0,89,0.00,SCT,OVC,0.00,WeatherDisplay:10.37,2013-07-01 08:17:00,
2013-07-01 04:22:00,77.4,73.9,29.89,SSE,161,0.0,0.0,89,0.00,SCT,OVC,0.00,WeatherDisplay:10.37,2013-07-01 08:22:00,
2013-07-01 04:27:00,77.4,73.9,29.89,SSE,160,0.0,0.0,89,0.00,SCT,OVC,0.00,WeatherDisplay:10.37,2013-07-01 08:27:00,
2013-07-01 04:32:00,77.6,74.4,29.89,SSE,160,0.0,0.0,90,0.00,SCT,OVC,0.00,WeatherDisplay:10.37,2013-07-01 08:32:00,
2013-07-01 04:37:00,77.7,74.5,29.89,SSE,155,3.0,3.0,90,0.00,SCT,OVC,0.00,WeatherDisplay:10.37,2013-07-01 08:37:00,
2013-07-01 04:42:00,77.9,74.4,29.89,SSE,147,0.0,0.0,89,0.00,SCT,OVC,0.00,WeatherDisplay:10.37,2013-07-01 08:42:00,
2013-07-01 04:47:00,78.3,74.8,29.89,SE,146,6.9,6.9,89,0.00,SCT,OVC,0.00,WeatherDisplay:10.37,2013-07-01 08:47:00,
2013-07-01 04:52:00,78.5,74.6,29.89,SE,131,0.0,0.0,88,0.00,SCT,OVC,0.00,WeatherDisplay:10.37,2013-07-01 08:52:00,
2013-07-01 04:57:00,78.6,74.4,29.89,SE,140,0.0,0.0,87,0.00,SCT,OVC,0.00,WeatherDisplay:10.37,2013-07-01 08:57:00,
2013-07-01 05:02:00,78.8,74.6,29.89,SE,144,8.1,8.1,87,0.00,SCT,OVC,0.00,WeatherDisplay:10.37,2013-07-01 09:02:00,
2013-07-01 05:07:00,79.0,74.5,29.89,SE,146,0.0,0.0,86,0.00,SCT,OVC,0.00,WeatherDisplay:10.37,2013-07-01 09:07:00,
2013-07-01 05:12:00,79.2,74.3,29.89,SE,146,0.0,0.0,85,0.00,SCT,OVC,0.00,WeatherDisplay:10.37,2013-07-01 09:12:00,
2013-07-01 05:17:00,79.2,74.3,29.89,SE,146,0.0,0.0,85,0.00,SCT,OVC,0.00,WeatherDisplay:10.37,2013-07-01 09:17:00,
2013-07-01 05:22:00,79.4,74.5,29.89,SE,143,0.0,0.0,85,0.00,SCT,OVC,0.00,WeatherDisplay:10.37,2013-07-01 09:22:00,
2013-07-01 05:27:00,79.4,74.5,29.89,SE,144,0.0,0.0,85,0.00,SCT,OVC,0.00,WeatherDisplay:10.37,2013-07-01 09:27:00,
2013-07-01 05:32:00,79.4,74.5,29.89,SE,144,0.0,0.0,85,0.00,SCT,OVC,0.00,WeatherDisplay:10.37,2013-07-01 09:32:00,
2013-07-01 05:37:00,79.4,74.5,29.89,SE,144,0.0,0.0,85,0.00,SCT,OVC,0.00,WeatherDisplay:10.37,2013-07-01 09:37:00,
2013-07-01 05:42:00,79.4,74.5,29.89,SE,145,0.0,0.0,85,0.00,SCT,OVC,0.00,WeatherDisplay:10.37,2013-07-01 09:42:00,
2013-07-01 05:47:00,79.6,74.7,29.89,SE,144,0.0,0.0,85,0.00,SCT,OVC,0.00,WeatherDisplay:10.37,2013-07-01 09:47:00,
2013-07-01 05:52:00,79.6,74.7,29.89,SE,142,0.0,0.0,85,0.00,SCT,OVC,0.00,WeatherDisplay:10.37,2013-07-01 09:52:00,
2013-07-01 05:57:00,79.6,74.7,29.89,SE,143,3.5,3.5,85,0.00,SCT,OVC,0.00,WeatherDisplay:10.37,2013-07-01 09:57:00,
2013-07-01 06:02:00,79.6,74.7,29.89,SE,143,0.0,0.0,85,0.00,SCT,OVC,0.00,WeatherDisplay:10.37,2013-07-01 10:02:00,
2013-07-01 06:07:00,79.8,74.9,29.89,SE,143,0.0,0.0,85,0.00,SCT,OVC,0.00,WeatherDisplay:10.37,2013-07-01 10:07:00,
2013-07-01 06:12:00,79.8,74.9,29.89,SE,143,2.3,2.3,85,0.00,SCT,OVC,0.00,WeatherDisplay:10.37,2013-07-01 10:12:00,
2013-07-01 06:17:00,79.8,74.9,29.90,SE,143,0.0,0.0,85,0.00,SCT,OVC,0.00,WeatherDisplay:10.37,2013-07-01 10:17:00,
2013-07-01 06:22:00,79.8,75.2,29.90,SE,145,0.0,0.0,86,0.00,SCT,OVC,0.00,WeatherDisplay:10.37,2013-07-01 10:22:00,
2013-07-01 06:27:00,79.8,75.2,29.90,SE,146,0.0,0.0,86,0.00,SCT,OVC,0.00,WeatherDisplay:10.37,2013-07-01 10:27:00,
2013-07-01 06:32:00,79.8,75.2,29.91,SE,146,0.0,0.0,86,0.00,SCT,OVC,0.00,WeatherDisplay:10.37,2013-07-01 10:32:00,
2013-07-01 06:37:00,79.8,75.2,29.91,SE,146,0.0,0.0,86,0.00,SCT,OVC,0.00,WeatherDisplay:10.37,2013-07-01 10:37:00,
2013-07-01 06:42:00,79.6,75.0,29.91,SE,146,0.0,0.0,86,0.00,SCT,OVC,0.00,WeatherDisplay:10.37,2013-07-01 10:42:00,
2013-07-01 06:47:00,79.6,75.4,29.92,SE,145,0.0,0.0,87,0.00,SCT,OVC,0.00,WeatherDisplay:10.37,2013-07-01 10:47:00,
2013-07-01 06:52:00,79.6,75.4,29.92,SE,145,0.0,0.0,87,0.00,SCT,OVC,0.00,WeatherDisplay:10.37,2013-07-01 10:52:00,
2013-07-01 06:57:00,79.8,75.6,29.92,SSE,150,8.1,8.1,87,0.00,SCT,OVC,0.00,WeatherDisplay:10.37,2013-07-01 10:57:00,
2013-07-01 07:02:00,79.8,75.6,29.92,SSE,155,17.3,17.3,87,0.00,SCT,OVC,0.00,WeatherDisplay:10.37,2013-07-01 11:02:00,
2013-07-01 07:07:00,79.8,74.5,29.92,SSE,148,21.9,21.9,84,0.00,SCT,OVC,0.00,WeatherDisplay:10.37,2013-07-01 11:07:00,
2013-07-01 07:12:00,80.1,73.4,29.92,SSW,198,12.7,12.7,80,0.00,SCT,OVC,0.00,WeatherDisplay:10.37,2013-07-01 11:12:00,
2013-07-01 07:17:00,80.5,73.0,29.93,SSE,164,11.5,11.5,78,0.00,SCT,OVC,0.00,WeatherDisplay:10.37,2013-07-01 11:17:00,
2013-07-01 07:22:00,80.7,73.2,29.93,SSE,153,10.4,10.4,78,0.00,SCT,OVC,0.00,WeatherDisplay:10.37,2013-07-01 11:22:00,
2013-07-01 07:27:00,80.7,73.6,29.93,SSE,147,12.7,12.7,79,0.00,SCT,OVC,0.00,WeatherDisplay:10.37,2013-07-01 11:27:00,
2013-07-01 07:32:00,80.5,73.8,29.93,SSE,150,11.5,11.5,80,0.00,SCT,OVC,0.00,WeatherDisplay:10.37,2013-07-01 11:32:00,
2013-07-01 07:37:00,80.5,74.1,29.93,SSE,148,8.0,8.0,81,0.00,SCT,OVC,0.00,WeatherDisplay:10.37,2013-07-01 11:37:00,
2013-07-01 07:42:00,80.5,74.5,29.93,SE,139,11.5,11.5,82,0.00,SCT,OVC,0.00,WeatherDisplay:10.37,2013-07-01 11:42:00,
2013-07-01 07:47:00,80.5,74.5,29.93,SE,137,5.8,5.8,82,0.00,SCT,OVC,0.00,WeatherDisplay:10.37,2013-07-01 11:47:00,
2013-07-01 07:52:00,80.7,75.1,29.93,SSE,149,4.6,4.6,83,0.00,SCT,OVC,0.00,WeatherDisplay:10.37,2013-07-01 11:52:00,
2013-07-01 07:58:00,81.1,75.4,29.93,SE,146,5.8,5.8,83,0.00,SCT,OVC,0.00,WeatherDisplay:10.37,2013-07-01 11:58:00,
2013-07-01 08:03:00,81.2,75.5,29.93,SE,146,0.0,0.0,83,0.00,SCT,OVC,0.00,WeatherDisplay:10.37,2013-07-01 12:03:00,
2013-07-01 08:08:00,81.4,75.4,29.93,SSE,158,6.9,6.9,82,0.00,SCT,OVC,0.00,WeatherDisplay:10.37,2013-07-01 12:08:00,
2013-07-01 08:13:00,81.6,75.6,29.93,SSE,167,5.8,5.8,82,0.00,SCT,OVC,0.00,WeatherDisplay:10.37,2013-07-01 12:13:00,
2013-07-01 08:18:00,81.8,75.8,29.93,SSE,150,11.5,11.5,82,0.00,SCT,OVC,0.00,WeatherDisplay:10.37,2013-07-01 12:18:00,
2013-07-01 08:23:00,81.8,75.8,29.93,SE,144,12.7,12.7,82,0.00,SCT,OVC,0.00,WeatherDisplay:10.37,2013-07-01 12:23:00,
2013-07-01 08:28:00,82.0,75.6,29.93,SE,144,13.8,13.8,81,0.00,SCT,OVC,0.00,WeatherDisplay:10.37,2013-07-01 12:28:00,
2013-07-01 08:33:00,82.2,76.2,29.93,SSE,157,0.0,0.0,82,0.00,SCT,OVC,0.00,WeatherDisplay:10.37,2013-07-01 12:33:00,
2013-07-01 08:38:00,82.4,76.0,29.93,SE,138,15.0,15.0,81,0.00,SCT,OVC,0.00,WeatherDisplay:10.37,2013-07-01 12:38:00,
2013-07-01 08:43:00,82.8,76.4,29.93,South,180,25.3,25.3,81,0.00,SCT,OVC,0.00,WeatherDisplay:10.37,2013-07-01 12:43:00,
2013-07-01 08:48:00,83.0,76.2,29.93,SSE,150,26.5,26.5,80,0.00,SCT,OVC,0.00,WeatherDisplay:10.37,2013-07-01 12:48:00,
2013-07-01 08:53:00,83.0,75.8,29.93,SSE,165,31.1,31.1,79,0.00,SCT,OVC,0.00,WeatherDisplay:10.37,2013-07-01 12:53:00,
2013-07-01 08:58:00,83.0,75.8,29.93,SE,136,19.6,19.6,79,0.00,SCT,OVC,0.00,WeatherDisplay:10.37,2013-07-01 12:58:00,
2013-07-01 09:03:00,83.2,76.0,29.93,SE,140,22.0,22.0,79,0.00,SCT,OVC,0.00,WeatherDisplay:10.37,2013-07-01 13:03:00,
2013-07-01 09:08:00,83.2,75.2,29.93,East,101,29.9,29.9,77,0.00,SCT,OVC,0.00,WeatherDisplay:10.37,2013-07-01 13:08:00,
2013-07-01 09:13:00,83.0,75.0,29.93,SSE,159,31.1,31.1,77,0.00,SCT,OVC,0.00,WeatherDisplay:10.37,2013-07-01 13:13:00,
2013-07-01 09:18:00,83.0,74.6,29.93,SSE,161,32.2,32.2,76,0.00,SCT,OVC,0.00,WeatherDisplay:10.37,2013-07-01 13:18:00,
2013-07-01 09:23:00,83.0,74.6,29.93,South,171,20.7,20.7,76,0.00,SCT,OVC,0.00,WeatherDisplay:10.37,2013-07-01 13:23:00,
2013-07-01 09:28:00,83.4,75.0,29.93,ESE,121,15.0,15.0,76,0.00,SCT,OVC,0.00,WeatherDisplay:10.37,2013-07-01 13:28:00,
2013-07-01 09:33:00,83.6,74.8,29.93,SE,131,29.0,29.0,75,0.00,SCT,OVC,0.00,WeatherDisplay:10.37,2013-07-01 13:33:00,
2013-07-01 09:38:00,83.8,74.2,29.93,South,177,21.9,21.9,73,0.00,SCT,OVC,0.00,WeatherDisplay:10.37,2013-07-01 13:38:00,
2013-07-01 09:43:00,84.0,73.6,29.93,South,174,26.5,26.5,71,0.00,SCT,OVC,0.00,WeatherDisplay:10.37,2013-07-01 13:43:00,
2013-07-01 09:48:00,84.1,74.1,29.93,South,184,28.8,28.8,72,0.00,SCT,OVC,0.00,WeatherDisplay:10.37,2013-07-01 13:48:00,
2013-07-01 09:53:00,84.5,74.1,29.93,SSW,201,15.0,15.0,71,0.00,SCT,OVC,0.00,WeatherDisplay:10.37,2013-07-01 13:53:00,
2013-07-01 09:58:00,84.9,74.0,29.93,SSE,152,31.1,31.1,70,0.00,SCT,OVC,0.00,WeatherDisplay:10.37,2013-07-01 13:58:00,
2013-07-01 10:03:00,85.1,74.2,29.93,South,169,29.9,29.9,70,0.00,SCT,OVC,0.00,WeatherDisplay:10.37,2013-07-01 14:03:00,
2013-07-01 10:08:00,85.3,74.0,29.93,SSE,159,25.3,25.3,69,0.00,SCT,OVC,0.00,WeatherDisplay:10.37,2013-07-01 14:08:00,
2013-07-01 10:13:00,85.3,73.5,29.93,South,180,28.8,28.8,68,0.00,SCT,OVC,0.00,WeatherDisplay:10.37,2013-07-01 14:13:00,
2013-07-01 10:18:00,85.1,73.8,29.93,SSE,148,29.9,29.9,69,0.00,SCT,OVC,0.00,WeatherDisplay:10.37,2013-07-01 14:18:00,
2013-07-01 10:23:00,84.7,73.8,29.93,SSW,202,27.6,27.6,70,0.00,SCT,OVC,0.00,WeatherDisplay:10.37,2013-07-01 14:23:00,
2013-07-01 10:28:00,84.9,74.4,29.93,SSE,148,21.0,21.0,71,0.00,SCT,OVC,0.00,WeatherDisplay:10.37,2013-07-01 14:28:00,
2013-07-01 10:33:00,85.3,74.8,29.93,SE,136,25.3,25.3,71,0.00,SCT,OVC,0.00,WeatherDisplay:10.37,2013-07-01 14:33:00,
2013-07-01 10:38:00,85.9,75.0,29.93,SSE,150,26.0,26.0,70,0.00,SCT,OVC,0.00,WeatherDisplay:10.37,2013-07-01 14:38:00,
2013-07-01 10:43:00,85.7,74.8,29.93,SSE,151,21.9,21.9,70,0.00,SCT,OVC,0.00,WeatherDisplay:10.37,2013-07-01 14:43:00,
2013-07-01 10:48:00,85.7,74.4,29.93,SSE,156,34.5,34.5,69,0.00,SCT,OVC,0.00,WeatherDisplay:10.37,2013-07-01 14:48:00,
2013-07-01 10:53:00,85.5,74.6,29.93,SSE,150,26.5,26.5,70,0.00,SCT,OVC,0.00,WeatherDisplay:10.37,2013-07-01 14:53:00,
2013-07-01 10:58:00,85.1,75.1,29.93,SSW,207,26.5,26.5,72,0.00,SCT,OVC,0.00,WeatherDisplay:10.37,2013-07-01 14:58:00,
2013-07-01 11:03:00,85.3,74.4,29.93,SE,126,27.6,27.6,70,0.00,SCT,OVC,0.00,WeatherDisplay:10.37,2013-07-01 15:03:00,
2013-07-01 11:08:00,85.5,75.0,29.93,SSE,152,32.2,32.2,71,0.00,SCT,OVC,0.00,WeatherDisplay:10.37,2013-07-01 15:08:00,
2013-07-01 11:13:00,85.5,75.0,29.93,South,175,29.9,29.9,71,0.00,SCT,OVC,0.00,WeatherDisplay:10.37,2013-07-01 15:13:00,
2013-07-01 11:18:00,85.5,76.3,29.94,SSE,164,24.0,24.0,74,0.00,SCT,OVC,0.00,WeatherDisplay:10.37,2013-07-01 15:18:00,
2013-07-01 11:23:00,85.5,75.4,29.94,SSE,153,26.5,26.5,72,0.00,SCT,OVC,0.00,WeatherDisplay:10.37,2013-07-01 15:23:00,
2013-07-01 11:28:00,85.5,75.4,29.94,SSE,150,24.2,24.2,72,0.00,SCT,OVC,0.00,WeatherDisplay:10.37,2013-07-01 15:28:00,
2013-07-01 11:33:00,85.5,75.0,29.94,SSE,156,21.9,21.9,71,0.00,SCT,OVC,0.00,WeatherDisplay:10.37,2013-07-01 15:33:00,
2013-07-01 11:38:00,85.9,75.4,29.94,SE,146,32.2,32.2,71,0.00,SCT,OVC,0.00,WeatherDisplay:10.37,2013-07-01 15:38:00,
2013-07-01 11:43:00,85.7,75.6,29.94,SE,133,33.0,33.0,72,0.00,SCT,OVC,0.00,WeatherDisplay:10.37,2013-07-01 15:43:00,
2013-07-01 11:48:00,85.7,75.2,29.94,SSE,161,26.5,26.5,71,0.00,SCT,OVC,0.00,WeatherDisplay:10.37,2013-07-01 15:48:00,
2013-07-01 11:53:00,85.7,75.2,29.94,South,175,39.1,39.1,71,0.00,SCT,OVC,0.00,WeatherDisplay:10.37,2013-07-01 15:53:00,
2013-07-01 11:58:00,86.1,75.6,29.94,SSE,150,20.7,20.7,71,0.00,SCT,OVC,0.00,WeatherDisplay:10.37,2013-07-01 15:58:00,
2013-07-01 12:03:00,86.1,75.6,29.95,SSE,155,34.5,34.5,71,0.00,SCT,OVC,0.00,WeatherDisplay:10.37,2013-07-01 16:03:00,
2013-07-01 12:09:00,86.1,75.6,29.95,SE,133,19.6,19.6,71,0.00,SCT,OVC,0.00,WeatherDisplay:10.37,2013-07-01 16:09:00,
2013-07-01 12:13:00,86.5,75.5,29.95,SSE,148,29.9,29.9,70,0.00,SCT,OVC,0.00,WeatherDisplay:10.37,2013-07-01 16:13:00,
2013-07-01 12:19:00,86.7,74.4,29.95,SSE,163,40.3,40.3,67,0.00,SCT,OVC,0.00,WeatherDisplay:10.37,2013-07-01 16:19:00,
2013-07-01 12:24:00,86.5,74.2,29.95,South,191,29.9,29.9,67,0.00,SCT,OVC,0.00,WeatherDisplay:10.37,2013-07-01 16:24:00,
2013-07-01 12:29:00,87.2,73.5,29.95,SE,142,28.8,28.8,64,0.00,SCT,OVC,0.00,WeatherDisplay:10.37,2013-07-01 16:29:00,
2013-07-01 12:34:00,87.6,73.9,29.94,SSE,157,28.0,28.0,64,0.00,SCT,OVC,0.00,WeatherDisplay:10.37,2013-07-01 16:34:00,
2013-07-01 12:39:00,87.8,74.1,29.94,SSE,148,42.6,42.6,64,0.00,SCT,OVC,0.00,WeatherDisplay:10.37,2013-07-01 16:39:00,
2013-07-01 12:44:00,87.8,74.1,29.94,SSE,163,31.1,31.1,64,0.00,SCT,OVC,0.00,WeatherDisplay:10.37,2013-07-01 16:44:00,
2013-07-01 12:49:00,87.8,74.1,29.95,SE,142,23.0,23.0,64,0.00,SCT,OVC,0.00,WeatherDisplay:10.37,2013-07-01 16:49:00,
2013-07-01 12:54:00,88.2,74.0,29.95,SE,139,25.3,25.3,63,0.00,SCT,OVC,0.00,WeatherDisplay:10.37,2013-07-01 16:54:00,
2013-07-01 12:59:00,88.0,74.3,29.95,SE,132,36.8,36.8,64,0.00,SCT,OVC,0.00,WeatherDisplay:10.37,2013-07-01 16:59:00,
2013-07-01 13:04:00,87.8,74.1,29.94,SE,138,19.6,19.6,64,0.00,SCT,OVC,0.00,WeatherDisplay:10.37,2013-07-01 17:04:00,
2013-07-01 13:09:00,87.6,73.9,29.94,SE,129,27.6,27.6,64,0.00,SCT,OVC,0.00,WeatherDisplay:10.37,2013-07-01 17:09:00,
2013-07-01 13:14:00,87.8,73.6,29.94,South,186,29.9,29.9,63,0.00,SCT,OVC,0.00,WeatherDisplay:10.37,2013-07-01 17:14:00,
2013-07-01 13:19:00,87.4,73.7,29.95,South,175,38.0,38.0,64,0.00,SCT,OVC,0.00,WeatherDisplay:10.37,2013-07-01 17:19:00,
2013-07-01 13:24:00,87.4,73.7,29.95,SE,142,35.7,35.7,64,0.00,SCT,OVC,0.00,WeatherDisplay:10.37,2013-07-01 17:24:00,
2013-07-01 13:29:00,87.0,73.3,29.94,SSE,163,35.7,35.7,64,0.00,SCT,OVC,0.00,WeatherDisplay:10.37,2013-07-01 17:29:00,
2013-07-01 13:34:00,87.0,73.8,29.94,SSE,161,34.5,34.5,65,0.00,SCT,OVC,0.00,WeatherDisplay:10.37,2013-07-01 17:34:00,
2013-07-01 13:39:00,87.0,73.8,29.94,SSE,148,23.0,23.0,65,0.00,SCT,OVC,0.00,WeatherDisplay:10.37,2013-07-01 17:39:00,
2013-07-01 13:44:00,86.7,73.1,29.94,SSE,168,28.8,28.8,64,0.00,SCT,OVC,0.00,WeatherDisplay:10.37,2013-07-01 17:44:00,
2013-07-01 13:49:00,86.7,72.1,29.94,SSE,160,29.9,29.9,62,0.00,SCT,OVC,0.00,WeatherDisplay:10.37,2013-07-01 17:49:00,
2013-07-01 13:54:00,86.5,72.4,29.94,South,171,27.0,27.0,63,0.00,SCT,OVC,0.00,WeatherDisplay:10.37,2013-07-01 17:54:00,
2013-07-01 13:59:00,86.3,72.7,29.93,SE,146,26.5,26.5,64,0.00,SCT,OVC,0.00,WeatherDisplay:10.37,2013-07-01 17:59:00,
2013-07-01 14:04:00,86.3,73.6,29.93,SSE,154,34.5,34.5,66,0.00,SCT,OVC,0.00,WeatherDisplay:10.37,2013-07-01 18:04:00,
2013-07-01 14:09:00,86.1,73.9,29.93,SSW,210,26.5,26.5,67,0.00,SCT,OVC,0.00,WeatherDisplay:10.37,2013-07-01 18:09:00,
2013-07-01 14:14:00,86.1,73.4,29.93,South,183,24.0,24.0,66,0.00,SCT,OVC,0.00,WeatherDisplay:10.37,2013-07-01 18:14:00,
2013-07-01 14:19:00,86.3,74.5,29.93,SE,138,11.5,11.5,68,0.00,SCT,OVC,0.00,WeatherDisplay:10.37,2013-07-01 18:19:00,
2013-07-01 14:24:00,86.3,74.0,29.93,SSE,160,31.1,31.1,67,0.00,SCT,OVC,0.00,WeatherDisplay:10.37,2013-07-01 18:24:00,
2013-07-01 14:29:00,86.5,75.1,29.93,SE,140,26.5,26.5,69,0.00,SCT,OVC,0.00,WeatherDisplay:10.37,2013-07-01 18:29:00,
2013-07-01 14:34:00,86.5,74.7,29.93,SE,143,26.5,26.5,68,0.00,SCT,OVC,0.00,WeatherDisplay:10.37,2013-07-01 18:34:00,
2013-07-01 14:39:00,86.3,74.9,29.93,SSE,152,25.3,25.3,69,0.00,SCT,OVC,0.00,WeatherDisplay:10.37,2013-07-01 18:39:00,
2013-07-01 14:44:00,86.1,74.3,29.93,SE,143,42.6,42.6,68,0.00,SCT,OVC,0.00,WeatherDisplay:10.37,2013-07-01 18:44:00,
2013-07-01 14:49:00,86.1,74.7,29.93,SSE,153,26.5,26.5,69,0.00,SCT,OVC,0.00,WeatherDisplay:10.37,2013-07-01 18:49:00,
2013-07-01 14:54:00,85.7,74.4,29.93,SSE,149,24.2,24.2,69,0.00,SCT,OVC,0.00,WeatherDisplay:10.37,2013-07-01 18:54:00,
2013-07-01 14:59:00,85.5,74.6,29.92,ESE,105,34.5,34.5,70,0.00,SCT,OVC,0.00,WeatherDisplay:10.37,2013-07-01 18:59:00,
2013-07-01 15:04:00,85.1,74.2,29.92,SSE,152,34.5,34.5,70,0.00,SCT,OVC,0.00,WeatherDisplay:10.37,2013-07-01 19:04:00,
2013-07-01 15:09:00,85.1,74.6,29.92,SE,140,20.7,20.7,71,0.00,SCT,OVC,0.00,WeatherDisplay:10.37,2013-07-01 19:09:00,
2013-07-01 15:14:00,84.7,75.1,29.93,South,177,32.2,32.2,73,0.00,SCT,OVC,0.00,WeatherDisplay:10.37,2013-07-01 19:14:00,
2013-07-01 15:19:00,83.6,75.2,29.93,SW,236,12.7,12.7,76,0.01,RA,OVC,0.02,WeatherDisplay:10.37,2013-07-01 19:19:00,
2013-07-01 15:24:00,81.2,74.1,29.93,SW,221,10.4,10.4,79,0.04,RA,OVC,0.04,WeatherDisplay:10.37,2013-07-01 19:24:00,
2013-07-01 15:29:00,79.6,73.6,29.93,SW,222,0.0,0.0,82,0.04,RA,OVC,0.04,WeatherDisplay:10.37,2013-07-01 19:29:00,
2013-07-01 15:34:00,78.5,72.9,29.93,SW,219,9.2,9.2,83,0.04,SCT,OVC,0.04,WeatherDisplay:10.37,2013-07-01 19:34:00,
2013-07-01 15:39:00,77.9,72.7,29.93,SW,219,0.0,0.0,84,0.04,SCT,OVC,0.04,WeatherDisplay:10.37,2013-07-01 19:39:00,
2013-07-01 15:44:00,78.3,73.4,29.92,SW,218,0.0,0.0,85,0.04,SCT,OVC,0.04,WeatherDisplay:10.37,2013-07-01 19:44:00,
2013-07-01 15:49:00,78.5,73.6,29.92,SE,143,8.1,8.1,85,0.04,SCT,OVC,0.04,WeatherDisplay:10.37,2013-07-01 19:49:00,
2013-07-01 15:54:00,79.0,74.1,29.92,SE,146,11.5,11.5,85,0.04,SCT,OVC,0.04,WeatherDisplay:10.37,2013-07-01 19:54:00,
2013-07-01 15:59:00,80.1,75.2,29.91,SSE,148,12.7,12.7,85,0.04,SCT,OVC,0.04,WeatherDisplay:10.37,2013-07-01 19:59:00,
2013-07-01 16:04:00,81.4,75.4,29.91,SE,146,39.1,39.1,82,0.04,SCT,OVC,0.04,WeatherDisplay:10.37,2013-07-01 20:04:00,
2013-07-01 16:09:00,82.4,75.2,29.91,ESE,107,20.7,20.7,79,0.04,SCT,OVC,0.04,WeatherDisplay:10.37,2013-07-01 20:09:00,
2013-07-01 16:14:00,83.0,74.6,29.92,SSE,147,35.7,35.7,76,0.04,SCT,OVC,0.04,WeatherDisplay:10.37,2013-07-01 20:14:00,
2013-07-01 16:19:00,83.4,74.6,29.92,SSE,147,32.2,32.2,75,0.03,SCT,OVC,0.04,WeatherDisplay:10.37,2013-07-01 20:19:00,
2013-07-01 16:24:00,83.6,74.4,29.92,SSE,147,35.7,35.7,74,0.00,SCT,OVC,0.04,WeatherDisplay:10.37,2013-07-01 20:24:00,
2013-07-01 16:29:00,83.6,74.4,29.92,SSE,156,26.5,26.5,74,0.00,SCT,OVC,0.04,WeatherDisplay:10.37,2013-07-01 20:29:00,
2013-07-01 16:34:00,83.8,74.6,29.92,SSE,164,31.1,31.1,74,0.00,SCT,OVC,0.04,WeatherDisplay:10.37,2013-07-01 20:34:00,
2013-07-01 16:39:00,83.8,74.2,29.92,SSE,147,26.5,26.5,73,0.00,SCT,OVC,0.04,WeatherDisplay:10.37,2013-07-01 20:39:00,
2013-07-01 16:44:00,83.8,74.6,29.92,SSE,151,18.4,18.4,74,0.00,SCT,OVC,0.04,WeatherDisplay:10.37,2013-07-01 20:44:00,
2013-07-01 16:49:00,83.8,74.6,29.92,SSE,156,15.0,15.0,74,0.00,SCT,OVC,0.04,WeatherDisplay:10.37,2013-07-01 20:49:00,
2013-07-01 16:54:00,83.6,74.4,29.92,South,173,28.8,28.8,74,0.00,SCT,OVC,0.04,WeatherDisplay:10.37,2013-07-01 20:54:00,
2013-07-01 16:59:00,83.6,74.4,29.93,SSE,148,28.8,28.8,74,0.00,SCT,OVC,0.04,WeatherDisplay:10.37,2013-07-01 20:59:00,
2013-07-01 17:04:00,83.6,74.4,29.93,SSE,163,26.5,26.5,74,0.00,SCT,OVC,0.04,WeatherDisplay:10.37,2013-07-01 21:04:00,
2013-07-01 17:10:00,83.6,74.0,29.93,SSE,148,27.6,27.6,73,0.00,SCT,OVC,0.04,WeatherDisplay:10.37,2013-07-01 21:10:00,
2013-07-01 17:15:00,83.6,73.6,29.93,SSE,160,21.0,21.0,72,0.00,SCT,OVC,0.04,WeatherDisplay:10.37,2013-07-01 21:15:00,
2013-07-01 17:20:00,83.6,73.6,29.93,South,172,17.3,17.3,72,0.00,SCT,OVC,0.04,WeatherDisplay:10.37,2013-07-01 21:20:00,
2013-07-01 17:25:00,83.8,73.8,29.93,SE,133,19.6,19.6,72,0.00,SCT,OVC,0.04,WeatherDisplay:10.37,2013-07-01 21:25:00,
2013-07-01 17:30:00,83.8,73.8,29.93,SE,140,27.0,27.0,72,0.00,SCT,OVC,0.04,WeatherDisplay:10.37,2013-07-01 21:30:00,
2013-07-01 17:35:00,83.8,73.8,29.93,SE,128,35.7,35.7,72,0.00,SCT,OVC,0.04,WeatherDisplay:10.37,2013-07-01 21:35:00,
2013-07-01 17:40:00,83.8,73.8,29.93,SSE,161,21.9,21.9,72,0.00,SCT,OVC,0.04,WeatherDisplay:10.37,2013-07-01 21:40:00,
2013-07-01 17:45:00,83.8,73.8,29.95,SSE,151,19.6,19.6,72,0.00,SCT,OVC,0.04,WeatherDisplay:10.37,2013-07-01 21:45:00,
2013-07-01 17:50:00,84.0,74.0,29.95,SE,136,19.6,19.6,72,0.00,SCT,OVC,0.04,WeatherDisplay:10.37,2013-07-01 21:50:00,
2013-07-01 17:55:00,84.0,74.0,29.95,SSE,153,13.0,13.0,72,0.00,SCT,OVC,0.04,WeatherDisplay:10.37,2013-07-01 21:55:00,
2013-07-01 18:00:00,84.0,74.4,29.96,SSE,152,18.4,18.4,73,0.00,SCT,OVC,0.04,WeatherDisplay:10.37,2013-07-01 22:00:00,
2013-07-01 18:05:00,84.0,74.4,29.96,SW,229,19.6,19.6,73,0.00,SCT,OVC,0.04,WeatherDisplay:10.37,2013-07-01 22:05:00,
2013-07-01 18:10:00,83.0,73.9,29.96,WNW,283,18.4,18.4,74,0.00,SCT,OVC,0.04,WeatherDisplay:10.37,2013-07-01 22:10:00,
2013-07-01 18:15:00,81.8,73.5,29.96,WNW,302,2.3,2.3,76,0.00,SCT,OVC,0.04,WeatherDisplay:10.37,2013-07-01 22:15:00,
2013-07-01 18:20:00,80.9,72.6,29.96,West,281,11.5,11.5,76,0.00,SCT,OVC,0.04,WeatherDisplay:10.37,2013-07-01 22:20:00,
2013-07-01 18:25:00,79.9,72.4,29.96,West,267,0.0,0.0,78,0.00,SCT,OVC,0.04,WeatherDisplay:10.37,2013-07-01 22:25:00,
2013-07-01 18:30:00,79.4,72.3,29.96,West,267,0.0,0.0,79,0.00,SCT,OVC,0.04,WeatherDisplay:10.37,2013-07-01 22:30:00,
2013-07-01 18:35:00,79.0,71.9,29.96,West,267,0.0,0.0,79,0.00,SCT,OVC,0.04,WeatherDisplay:10.37,2013-07-01 22:35:00,
2013-07-01 18:40:00,78.8,71.7,29.96,West,267,0.0,0.0,79,0.00,SCT,OVC,0.04,WeatherDisplay:10.37,2013-07-01 22:40:00,
2013-07-01 18:45:00,78.6,71.9,29.97,South,185,0.0,0.0,80,0.00,SCT,OVC,0.04,WeatherDisplay:10.37,2013-07-01 22:45:00,
2013-07-01 18:50:00,78.6,71.2,29.97,WSW,238,0.0,0.0,78,0.00,SCT,OVC,0.04,WeatherDisplay:10.37,2013-07-01 22:50:00,
2013-07-01 18:55:00,78.6,70.8,29.97,WSW,250,0.0,0.0,77,0.00,SCT,OVC,0.04,WeatherDisplay:10.37,2013-07-01 22:55:00,
2013-07-01 19:00:00,78.6,71.5,29.96,WSW,250,0.0,0.0,79,0.00,SCT,OVC,0.04,WeatherDisplay:10.37,2013-07-01 23:00:00,
2013-07-01 19:05:00,78.5,71.8,29.96,WSW,250,0.0,0.0,80,0.00,SCT,OVC,0.04,WeatherDisplay:10.37,2013-07-01 23:05:00,
2013-07-01 19:10:00,78.3,72.0,29.96,WSW,250,0.0,0.0,81,0.00,SCT,OVC,0.04,WeatherDisplay:10.37,2013-07-01 23:10:00,
2013-07-01 19:15:00,78.3,72.3,29.97,WSW,250,0.0,0.0,82,0.00,SCT,OVC,0.04,WeatherDisplay:10.37,2013-07-01 23:15:00,
2013-07-01 19:20:00,78.1,71.8,29.97,WSW,250,0.0,0.0,81,0.00,SCT,OVC,0.04,WeatherDisplay:10.37,2013-07-01 23:20:00,
2013-07-01 19:25:00,77.9,71.6,29.97,WSW,250,0.0,0.0,81,0.00,SCT,OVC,0.04,WeatherDisplay:10.37,2013-07-01 23:25:00,
2013-07-01 19:30:00,77.7,71.8,29.97,WSW,250,0.0,0.0,82,0.00,SCT,OVC,0.04,WeatherDisplay:10.37,2013-07-01 23:30:00,
2013-07-01 19:35:00,77.7,72.1,29.97,WSW,250,0.0,0.0,83,0.00,SCT,OVC,0.04,WeatherDisplay:10.37,2013-07-01 23:35:00,
2013-07-01 19:40:00,77.7,72.1,29.97,WSW,250,0.0,0.0,83,0.00,SCT,OVC,0.04,WeatherDisplay:10.37,2013-07-01 23:40:00,
2013-07-01 19:45:00,77.6,72.4,29.97,WSW,250,0.0,0.0,84,0.00,SCT,OVC,0.04,WeatherDisplay:10.37,2013-07-01 23:45:00,
2013-07-01 19:50:00,77.6,72.7,29.97,WSW,250,0.0,0.0,85,0.00,SCT,OVC,0.04,WeatherDisplay:10.37,2013-07-01 23:50:00,
2013-07-01 19:55:00,77.6,72.7,29.97,WSW,250,0.0,0.0,85,0.00,SCT,OVC,0.04,WeatherDisplay:10.37,2013-07-01 23:55:00,
2013-07-01 20:00:00,77.4,72.9,29.97,WSW,250,0.0,0.0,86,0.00,SCT,OVC,0.04,WeatherDisplay:10.37,2013-07-02 00:00:00,
2013-07-01 20:05:00,77.6,73.1,29.97,WSW,250,0.0,0.0,86,0.00,SCT,OVC,0.04,WeatherDisplay:10.37,2013-07-02 00:05:00,
2013-07-01 20:10:00,77.4,72.5,29.97,WSW,250,0.0,0.0,85,0.00,SCT,OVC,0.04,WeatherDisplay:10.37,2013-07-02 00:10:00,
2013-07-01 20:15:00,77.2,72.7,29.97,WSW,250,0.0,0.0,86,0.00,SCT,OVC,0.04,WeatherDisplay:10.37,2013-07-02 00:15:00,
2013-07-01 20:20:00,76.8,71.9,29.97,WSW,250,0.0,0.0,85,0.00,SCT,OVC,0.04,WeatherDisplay:10.37,2013-07-02 00:20:00,
2013-07-01 20:25:00,76.8,72.3,29.97,WSW,250,0.0,0.0,86,0.00,SCT,OVC,0.04,WeatherDisplay:10.37,2013-07-02 00:25:00,
2013-07-01 20:30:00,76.8,72.3,29.98,WSW,250,0.0,0.0,86,0.00,SCT,OVC,0.04,WeatherDisplay:10.37,2013-07-02 00:30:00,
2013-07-01 20:35:00,77.0,72.5,29.98,WSW,250,0.0,0.0,86,0.00,SCT,OVC,0.04,WeatherDisplay:10.37,2013-07-02 00:35:00,
2013-07-01 20:40:00,77.0,72.8,29.98,WSW,250,0.0,0.0,87,0.00,SCT,OVC,0.04,WeatherDisplay:10.37,2013-07-02 00:40:00,
2013-07-01 20:45:00,76.8,72.3,29.98,WSW,250,0.0,0.0,86,0.00,SCT,OVC,0.04,WeatherDisplay:10.37,2013-07-02 00:45:00,
2013-07-01 20:50:00,76.7,72.2,29.98,WSW,250,0.0,0.0,86,0.00,SCT,OVC,0.04,WeatherDisplay:10.37,2013-07-02 00:50:00,
2013-07-01 20:55:00,76.7,72.5,29.98,WSW,250,0.0,0.0,87,0.00,SCT,OVC,0.04,WeatherDisplay:10.37,2013-07-02 00:55:00,
2013-07-01 21:00:00,76.5,72.3,29.98,WSW,250,0.0,0.0,87,0.00,SCT,OVC,0.04,WeatherDisplay:10.37,2013-07-02 01:00:00,
2013-07-01 21:05:00,76.5,72.3,29.98,WSW,250,0.0,0.0,87,0.00,SCT,OVC,0.04,WeatherDisplay:10.37,2013-07-02 01:05:00,
2013-07-01 21:10:00,76.5,72.3,29.98,WSW,250,0.0,0.0,87,0.00,SCT,OVC,0.04,WeatherDisplay:10.37,2013-07-02 01:10:00,
2013-07-01 21:15:00,76.3,72.1,29.98,West,267,0.0,0.0,87,0.00,SCT,OVC,0.04,WeatherDisplay:10.37,2013-07-02 01:15:00,
2013-07-01 21:20:00,76.3,72.1,29.98,NNW,345,0.0,0.0,87,0.00,SCT,OVC,0.04,WeatherDisplay:10.37,2013-07-02 01:20:00,
2013-07-01 21:25:00,76.1,71.9,29.98,NNW,346,0.0,0.0,87,0.00,SCT,OVC,0.04,WeatherDisplay:10.37,2013-07-02 01:25:00,
2013-07-01 21:30:00,76.3,71.8,29.98,NNW,346,0.0,0.0,86,0.00,SCT,OVC,0.04,WeatherDisplay:10.37,2013-07-02 01:30:00,
2013-07-01 21:35:00,76.3,71.8,29.98,North,355,0.0,0.0,86,0.00,SCT,OVC,0.04,WeatherDisplay:10.37,2013-07-02 01:35:00,
2013-07-01 21:40:00,76.5,72.0,29.98,North,355,0.0,0.0,86,0.00,SCT,OVC,0.04,WeatherDisplay:10.37,2013-07-02 01:40:00,
2013-07-01 21:45:00,76.5,72.0,29.99,North,355,0.0,0.0,86,0.00,SCT,OVC,0.04,WeatherDisplay:10.37,2013-07-02 01:45:00,
2013-07-01 21:50:00,76.5,72.0,29.99,North,355,0.0,0.0,86,0.00,SCT,OVC,0.04,WeatherDisplay:10.37,2013-07-02 01:50:00,
2013-07-01 21:55:00,76.5,72.3,29.99,North,355,0.0,0.0,87,0.00,SCT,OVC,0.04,WeatherDisplay:10.37,2013-07-02 01:55:00,
2013-07-01 22:00:00,76.5,72.3,29.99,North,355,0.0,0.0,87,0.00,SCT,OVC,0.04,WeatherDisplay:10.37,2013-07-02 02:00:00,
2013-07-01 22:05:00,76.5,72.3,29.99,North,355,0.0,0.0,87,0.00,SCT,OVC,0.04,WeatherDisplay:10.37,2013-07-02 02:05:00,
2013-07-01 22:10:00,76.5,72.3,29.99,North,355,0.0,0.0,87,0.00,SCT,OVC,0.04,WeatherDisplay:10.37,2013-07-02 02:10:00,
2013-07-01 22:15:00,76.5,72.3,29.99,North,355,0.0,0.0,87,0.00,SCT,OVC,0.04,WeatherDisplay:10.37,2013-07-02 02:15:00,
2013-07-01 22:20:00,76.3,72.1,29.99,North,355,0.0,0.0,87,0.00,SCT,OVC,0.04,WeatherDisplay:10.37,2013-07-02 02:20:00,
2013-07-01 22:25:00,76.5,72.7,29.99,North,355,0.0,0.0,88,0.00,SCT,OVC,0.04,WeatherDisplay:10.37,2013-07-02 02:25:00,
2013-07-01 22:30:00,76.5,72.7,29.99,North,355,0.0,0.0,88,0.00,SCT,OVC,0.04,WeatherDisplay:10.37,2013-07-02 02:30:00,
2013-07-01 22:35:00,76.3,72.5,29.99,North,355,0.0,0.0,88,0.00,SCT,OVC,0.04,WeatherDisplay:10.37,2013-07-02 02:35:00,
2013-07-01 22:40:00,76.1,72.3,29.99,North,355,0.0,0.0,88,0.00,SCT,OVC,0.04,WeatherDisplay:10.37,2013-07-02 02:40:00,
2013-07-01 22:46:00,76.1,72.6,30.00,North,355,0.0,0.0,89,0.00,SCT,OVC,0.04,WeatherDisplay:10.37,2013-07-02 02:46:00,
2013-07-01 22:51:00,76.1,72.6,30.00,North,355,0.0,0.0,89,0.00,SCT,OVC,0.04,WeatherDisplay:10.37,2013-07-02 02:51:00,
2013-07-01 22:56:00,76.3,72.8,30.00,North,355,0.0,0.0,89,0.00,SCT,OVC,0.04,WeatherDisplay:10.37,2013-07-02 02:56:00,
2013-07-01 23:01:00,76.1,72.6,30.00,North,355,0.0,0.0,89,0.00,SCT,OVC,0.04,WeatherDisplay:10.37,2013-07-02 03:01:00,
2013-07-01 23:06:00,76.1,72.6,30.00,North,355,0.0,0.0,89,0.00,SCT,OVC,0.04,WeatherDisplay:10.37,2013-07-02 03:06:00,
2013-07-01 23:11:00,76.3,72.8,30.00,North,355,0.0,0.0,89,0.00,SCT,OVC,0.04,WeatherDisplay:10.37,2013-07-02 03:11:00,
2013-07-01 23:16:00,76.3,72.8,30.00,North,355,0.0,0.0,89,0.00,SCT,OVC,0.04,WeatherDisplay:10.37,2013-07-02 03:16:00,
2013-07-01 23:21:00,76.3,72.8,30.00,North,355,0.0,0.0,89,0.00,SCT,OVC,0.04,WeatherDisplay:10.37,2013-07-02 03:21:00,
2013-07-01 23:26:00,76.3,72.8,30.00,North,355,0.0,0.0,89,0.00,SCT,OVC,0.04,WeatherDisplay:10.37,2013-07-02 03:26:00,
2013-07-01 23:31:00,76.1,72.6,30.00,North,355,0.0,0.0,89,0.00,SCT,OVC,0.04,WeatherDisplay:10.37,2013-07-02 03:31:00,
2013-07-01 23:36:00,76.1,72.6,30.00,North,355,0.0,0.0,89,0.00,SCT,OVC,0.04,WeatherDisplay:10.37,2013-07-02 03:36:00,
2013-07-01 23:41:00,76.1,72.6,30.00,North,355,0.0,0.0,89,0.00,SCT,OVC,0.04,WeatherDisplay:10.37,2013-07-02 03:41:00,
2013-07-01 23:46:00,76.3,72.8,30.00,North,355,0.0,0.0,89,0.00,SCT,OVC,0.04,WeatherDisplay:10.37,2013-07-02 03:46:00,
2013-07-01 23:51:00,76.3,73.1,30.00,North,355,0.0,0.0,90,0.00,SCT,OVC,0.04,WeatherDisplay:10.37,2013-07-02 03:51:00,
2013-07-01 23:56:00,76.3,73.1,30.00,North,355,0.0,0.0,90,0.00,SCT,OVC,0.04,WeatherDisplay:10.37,2013-07-02 03:56:00,